Location: Eaton Estates
(41.3089°N, 82.0057°W)
Time: 06:41:54
(UTC+00:00)

Cosmos 372 Rocket - Pass Details

Date: 17 June 2021
Orbit: 737 x 768 km, 74.1° (Epoch: 27 July)

Event Time Altitude Azimuth Distance (km) Brightness Sun altitude
Rises 08:06:18 0° 335° (NNW) 3,234 7.6 -15.7°
Reaches altitude 10° 08:08:43 10° 331° (NNW) 2,308 6.8 -15.5°
Maximum altitude 08:13:48 53° 256° (WSW) 940 4.1 -14.9°
Enters shadow 08:18:03 15° 183° (S) 2,000 5.7 -14.4°
